User: anonymous   Login
Location: Unspecified
(0.0000°N, 0.0000°E)
Time: 04:31:36
(UTC+00:00)
Language:

STUDSAT - Orbit

View from above orbital plane
View from above orbital plane
View from above satellite
View from above satellite

Ground track
Ground track

The orbit data is extracted from the following two-line orbital elements,

1 36796U 10035B   18350.85087626  .00000208  00000-0  29257-4 0  9998
2 36796  98.0841 116.8597 0012542 356.2542   3.8578 14.87526495456750
Epoch (UTC): 16 December 2018 20:25:15
Eccentricity: 0.0012542
inclination: 98.0841°
perigee height: 597 km
apogee height: 614 km
right ascension of ascending node: 116.8597°
argument of perigee: 356.2542°
revolutions per day: 14.87526495
mean anomaly at epoch: 3.8578°
orbit number at epoch: 45675

The dashed part of the orbit path shows where the satellite is in the earth's shadow,  

DLR